�N����,����,�~����,�C��,���x,�C��,����,���ϕ���,�ő�u�ԕ���,�ő厞����,���˗�,�I�_���x,�n�����x,�ő啗���N��,DTYPE
"20/01/25","00:10",0.0,7.9,72.6,1025.1,352.7,2.6,5.4,341.0,0.00,3.3,9.1,"00:06:48",1
"20/01/25","00:20",0.0,7.8,72.2,1024.9,343.5,2.7,5.7,331.7,0.00,3.2,9.0,"00:11:36",1
"20/01/25","00:30",0.0,7.7,72.3,1024.4,328.5,2.2,3.4,338.2,0.00,3.1,8.9,"00:24:40",1
"20/01/25","00:40",0.0,7.6,72.2,1024.6,331.2,3.2,5.4,333.9,0.00,3.0,8.7,"00:38:40",1
"20/01/25","00:50",0.0,7.5,71.7,1024.4,323.8,4.4,7.1,337.8,0.00,2.8,8.7,"00:44:26",1
"20/01/25","01:00",0.0,7.4,71.5,1023.9,324.2,3.2,5.7,344.5,0.00,2.6,8.9,"00:55:52",1
"20/01/25","01:10",0.0,7.2,71.8,1023.9,325.9,3.2,5.5,326.7,0.00,2.5,8.9,"01:03:00",1
"20/01/25","01:20",0.0,7.1,72.1,1023.7,324.1,2.7,4.8,325.5,0.00,2.5,8.8,"01:18:40",1
"20/01/25","01:30",0.0,7.1,72.0,1023.7,322.9,3.1,5.7,339.6,0.00,2.4,8.8,"01:29:24",1
"20/01/25","01:40",0.0,7.0,71.9,1023.4,319.7,2.6,5.0,326.4,0.00,2.3,8.6,"01:31:44",1
"20/01/25","01:50",0.0,6.9,71.8,1023.9,308.1,3.0,4.4,339.1,0.00,2.2,8.5,"01:41:28",1
"20/01/25","02:00",0.0,6.9,71.6,1023.4,321.5,2.3,4.1,330.9,0.00,2.2,8.7,"01:52:08",1
"20/01/25","02:10",0.0,6.9,71.6,1023.9,324.4,2.2,3.9,338.2,0.00,2.2,8.5,"02:03:44",1
"20/01/25","02:20",0.0,6.8,71.7,1023.7,317.9,2.3,3.7,319.5,0.00,2.1,8.5,"02:11:52",1
"20/01/25","02:30",0.0,6.8,71.9,1023.4,324.4,2.6,4.4,307.2,0.00,2.1,8.7,"02:21:44",1
"20/01/25","02:40",0.0,6.7,72.1,1023.7,322.9,2.3,3.4,324.7,0.00,2.1,8.6,"02:35:12",1
"20/01/25","02:50",0.0,6.7,72.3,1023.7,315.4,2.8,4.5,321.2,0.00,2.1,8.6,"02:47:44",1
"20/01/25","03:00",0.0,6.7,72.2,1023.4,326.4,2.8,5.7,330.9,0.00,2.1,8.5,"02:53:52",1
"20/01/25","03:10",0.0,6.6,72.1,1023.4,322.5,2.6,4.2,313.3,0.00,2.0,8.5,"03:01:28",1
"20/01/25","03:20",0.0,6.4,72.4,1023.7,316.6,2.0,3.2,332.7,0.00,1.8,8.5,"03:12:40",1
"20/01/25","03:30",0.0,6.2,72.9,1023.7,305.0,2.0,3.5,308.4,0.00,1.7,8.5,"03:27:36",1
"20/01/25","03:40",0.0,6.3,73.1,1023.7,321.5,2.2,5.5,322.2,0.00,1.9,8.6,"03:33:52",1
"20/01/25","03:50",0.0,6.1,73.2,1023.7,302.3,1.3,3.5,319.0,0.00,1.7,8.3,"03:49:12",1
"20/01/25","04:00",0.0,6.1,73.3,1023.4,305.9,1.8,3.4,331.3,0.00,1.7,8.2,"03:57:48",1
"20/01/25","04:10",0.0,6.0,73.7,1023.7,332.8,1.0,2.2,335.9,0.00,1.7,8.0,"04:02:24",1
"20/01/25","04:20",0.0,5.7,74.4,1023.4,304.6,0.7,1.8,276.2,0.00,1.5,8.3,"04:12:12",1
"20/01/25","04:30",0.0,5.4,75.2,1023.4,318.9,1.6,2.5,315.0,0.00,1.4,8.2,"04:29:28",1
"20/01/25","04:40",0.0,5.7,75.3,1023.7,336.1,2.0,3.6,331.9,0.00,1.7,8.4,"04:30:16",1
"20/01/25","04:50",0.0,5.8,74.9,1023.7,326.6,2.2,4.3,339.6,0.00,1.7,8.2,"04:40:40",1
"20/01/25","05:00",0.0,5.6,74.8,1023.2,317.9,1.3,2.2,324.2,0.00,1.5,8.1,"04:52:06",1
"20/01/25","05:10",0.0,5.6,74.8,1023.2,330.7,2.0,3.1,332.7,0.00,1.5,8.1,"05:08:18",1
"20/01/25","05:20",0.0,5.5,74.9,1023.2,318.2,1.8,2.9,331.9,0.00,1.4,8.0,"05:11:16",1
"20/01/25","05:30",0.0,5.5,74.6,1023.7,313.1,1.6,2.6,313.0,0.00,1.4,7.8,"05:23:30",1
"20/01/25","05:40",0.0,5.3,74.8,1023.7,313.0,1.2,2.7,323.6,0.00,1.2,7.9,"05:30:08",1
"20/01/25","05:50",0.0,5.3,75.1,1023.7,315.0,1.6,2.2,311.4,0.00,1.3,8.0,"05:43:50",1
"20/01/25","06:00",0.0,5.2,75.8,1023.9,327.6,1.7,2.5,317.2,0.00,1.3,7.7,"05:54:52",1
"20/01/25","06:10",0.0,4.9,77.1,1023.4,313.5,1.5,3.2,329.2,0.00,1.3,8.1,"06:04:40",1
"20/01/25","06:20",0.0,4.7,78.1,1023.4,322.4,1.8,2.9,317.3,0.00,1.3,7.9,"06:17:22",1
"20/01/25","06:30",0.0,4.7,78.8,1023.7,322.6,1.3,2.5,323.2,0.00,1.4,7.8,"06:26:20",1
"20/01/25","06:40",0.0,4.4,79.5,1023.7,306.9,1.3,2.4,346.6,0.00,1.2,7.7,"06:36:16",1
"20/01/25","06:50",0.0,4.2,80.2,1023.7,300.7,1.2,2.2,333.3,0.00,1.1,7.9,"06:48:32",1
"20/01/25","07:00",0.0,4.0,81.1,1023.7,318.9,1.7,2.4,317.3,0.00,1.1,7.7,"06:58:48",1
"20/01/25","07:10",0.0,3.8,82.0,1023.7,312.2,1.7,2.9,322.2,0.00,1.1,8.0,"07:07:04",1
"20/01/25","07:20",0.0,3.6,82.9,1023.2,296.5,1.3,2.1,325.9,0.00,1.0,7.8,"07:10:16",1
"20/01/25","07:30",0.0,3.7,83.6,1023.2,297.2,1.3,2.1,318.7,0.00,1.2,7.6,"07:28:24",1
"20/01/25","07:40",0.0,4.0,84.2,1023.2,304.8,1.8,3.1,322.7,0.00,1.6,7.5,"07:38:16",1
"20/01/25","07:50",0.0,4.1,84.6,1023.4,306.7,1.6,2.2,323.7,0.00,1.8,7.7,"07:44:24",1
"20/01/25","08:00",0.0,4.3,85.0,1023.2,297.6,1.5,1.9,324.9,0.00,2.0,7.7,"07:51:04",1
"20/01/25","08:10",0.0,4.3,85.2,1023.7,315.6,1.7,2.2,318.6,0.00,2.1,7.6,"08:06:42",1
"20/01/25","08:20",0.0,4.4,85.5,1023.9,307.4,1.8,2.6,321.4,0.00,2.2,7.6,"08:15:28",1
"20/01/25","08:30",0.0,4.4,85.6,1023.4,299.5,2.0,3.5,309.6,0.00,2.2,7.2,"08:23:20",1
"20/01/25","08:40",0.0,4.5,85.6,1023.9,321.1,1.5,2.2,309.3,0.00,2.3,7.5,"08:34:48",1
"20/01/25","08:50",0.0,4.5,85.6,1024.1,297.9,1.7,2.7,314.8,0.01,2.3,7.6,"08:46:00",1
"20/01/25","09:00",0.0,4.6,85.7,1024.1,279.6,1.1,1.9,313.0,0.02,2.5,7.5,"08:52:08",1
"20/01/25","09:10",0.0,4.7,85.7,1024.4,276.1,1.3,3.3,345.7,0.02,2.6,7.5,"09:09:54",1
"20/01/25","09:20",0.0,5.2,85.4,1024.1,297.1,2.0,3.4,334.6,0.03,3.0,7.5,"09:19:20",1
"20/01/25","09:30",0.0,6.0,83.7,1024.6,336.2,1.8,4.2,357.9,0.08,3.5,7.5,"09:23:44",1
"20/01/25","09:40",0.0,7.1,80.4,1024.9,336.2,2.8,5.4,341.1,0.17,4.0,7.7,"09:38:24",1
"20/01/25","09:50",0.0,7.3,75.4,1024.6,343.2,2.6,5.1,341.5,0.13,3.3,7.7,"09:41:20",1
"20/01/25","10:00",0.0,8.1,71.6,1024.6,339.3,2.6,5.1,344.4,0.26,3.3,7.9,"09:58:40",1
"20/01/25","10:10",0.0,7.9,68.2,1025.1,343.1,2.3,5.0,333.3,0.16,2.4,7.8,"10:06:24",1
"20/01/25","10:20",0.0,7.9,68.0,1025.3,337.8,2.5,5.4,338.7,0.13,2.4,7.8,"10:16:56",1
"20/01/25","10:30",0.0,7.8,67.5,1025.3,353.8,2.0,4.4,341.3,0.12,2.2,8.1,"10:25:12",1
"20/01/25","10:40",0.0,7.8,67.0,1025.3,331.1,2.7,4.9,324.5,0.13,2.1,8.2,"10:39:04",1
"20/01/25","10:50",0.0,7.9,66.8,1025.1,336.8,2.6,5.4,333.8,0.15,2.2,8.2,"10:46:24",1
"20/01/25","11:00",0.0,8.1,66.5,1025.1,340.1,2.6,5.6,339.6,0.14,2.3,8.1,"10:59:36",1
"20/01/25","11:10",0.0,8.3,66.0,1024.6,347.9,2.1,4.9,338.4,0.24,2.4,8.3,"11:08:50",1
"20/01/25","11:20",0.0,8.6,64.6,1024.6,353.3,1.8,4.7,335.3,0.25,2.4,8.6,"11:19:28",1
"20/01/25","11:30",0.0,9.0,64.4,1024.6,340.5,1.8,3.6,356.0,0.25,2.7,8.5,"11:23:28",1
"20/01/25","11:40",0.0,9.8,63.6,1024.1,334.7,1.8,4.4,334.3,0.41,3.3,8.9,"11:38:40",1
"20/01/25","11:50",0.0,9.4,62.3,1024.1,339.1,3.0,6.0,337.6,0.30,2.6,8.8,"11:48:58",1
"20/01/25","12:00",0.0,9.2,63.5,1024.1,330.5,3.6,7.0,322.5,0.30,2.7,9.1,"11:58:42",1
"20/01/25","12:10",0.0,9.4,63.3,1023.7,337.0,3.2,6.7,322.9,0.42,2.8,9.3,"12:07:36",1
"20/01/25","12:20",0.0,9.6,62.6,1023.7,339.2,3.9,7.7,347.4,0.44,2.9,9.3,"12:14:00",1
"20/01/25","12:30",0.0,9.4,61.8,1023.4,341.4,3.6,6.8,339.1,0.35,2.5,9.6,"12:29:52",1
"20/01/25","12:40",0.0,9.5,60.7,1023.2,334.1,3.6,7.0,330.8,0.40,2.3,9.7,"12:38:24",1
"20/01/25","12:50",0.0,10.3,61.4,1023.0,331.6,3.2,6.4,339.6,0.52,3.2,9.7,"12:41:12",1
"20/01/25","13:00",0.0,10.3,58.9,1022.5,321.6,3.6,7.9,333.5,0.39,2.7,9.9,"12:55:12",1
"20/01/25","13:10",0.0,9.7,59.4,1022.5,326.8,4.4,7.7,335.5,0.22,2.2,10.0,"13:07:44",1
"20/01/25","13:20",0.0,9.7,59.8,1022.5,330.9,4.1,6.6,337.3,0.22,2.3,10.2,"13:11:20",1
"20/01/25","13:30",0.0,9.4,60.5,1022.5,329.3,4.2,7.7,317.8,0.18,2.2,10.4,"13:21:44",1
"20/01/25","13:40",0.0,9.2,61.2,1022.0,318.8,4.7,7.5,329.2,0.17,2.2,10.3,"13:35:04",1
"20/01/25","13:50",0.0,9.0,61.3,1021.8,336.5,5.0,7.5,340.6,0.17,2.0,10.2,"13:45:28",1
"20/01/25","14:00",0.0,9.1,61.3,1022.3,333.4,5.0,7.9,334.6,0.19,2.1,10.1,"13:54:40",1
"20/01/25","14:10",0.0,9.4,61.9,1022.3,325.8,5.0,10.0,327.7,0.22,2.5,10.3,"14:02:48",1
"20/01/25","14:20",0.0,9.6,60.9,1021.5,335.6,4.7,9.0,341.6,0.24,2.5,10.3,"14:17:12",1
"20/01/25","14:30",0.0,9.3,59.9,1021.8,335.6,5.2,9.6,335.4,0.20,2.0,10.4,"14:25:52",1
"20/01/25","14:40",0.0,9.2,60.4,1022.0,341.2,4.2,7.3,346.6,0.17,2.0,10.2,"14:32:00",1
"20/01/25","14:50",0.0,9.2,60.4,1021.5,338.8,4.7,7.8,324.2,0.16,2.0,10.2,"14:43:28",1
"20/01/25","15:00",0.0,9.2,61.1,1021.5,332.4,4.5,8.6,339.0,0.17,2.1,10.5,"14:59:28",1
"20/01/25","15:10",0.0,8.9,60.9,1021.8,328.3,4.5,7.2,337.5,0.15,1.8,10.2,"15:09:20",1
"20/01/25","15:20",0.0,9.0,61.1,1022.0,332.8,4.0,7.2,351.2,0.12,2.0,10.2,"15:16:08",1
"20/01/25","15:30",0.0,8.8,61.5,1021.8,334.1,4.1,6.0,335.8,0.10,1.9,10.2,"15:23:28",1
"20/01/25","15:40",0.0,8.6,61.6,1022.0,341.8,4.1,6.8,339.3,0.08,1.7,10.2,"15:36:16",1
"20/01/25","15:50",0.0,8.4,62.7,1022.0,336.2,4.2,8.3,338.9,0.07,1.7,10.0,"15:46:16",1
"20/01/25","16:00",0.0,8.3,62.8,1022.0,336.1,4.6,7.8,340.8,0.05,1.7,10.0,"15:51:44",1
"20/01/25","16:10",0.0,8.3,63.3,1021.8,337.4,3.9,6.4,326.9,0.05,1.8,9.9,"16:01:44",1
"20/01/25","16:20",0.0,8.2,64.2,1021.5,335.7,3.9,7.1,339.1,0.04,1.9,9.9,"16:13:44",1
"20/01/25","16:30",0.0,8.3,64.8,1021.8,339.4,3.7,5.7,322.8,0.07,2.1,9.9,"16:27:12",1
"20/01/25","16:40",0.0,8.2,64.4,1021.8,342.2,4.0,6.2,337.5,0.05,1.9,9.8,"16:34:00",1
"20/01/25","16:50",0.0,8.0,64.5,1021.5,340.8,4.0,6.7,341.7,0.04,1.8,9.8,"16:47:52",1
"20/01/25","17:00",0.0,7.9,64.7,1021.5,341.6,4.0,6.6,352.2,0.03,1.7,9.8,"16:58:16",1
"20/01/25","17:10",0.0,7.8,64.9,1021.8,342.6,3.7,5.7,342.8,0.03,1.7,9.8,"17:02:08",1
"20/01/25","17:20",0.0,7.7,65.4,1021.8,335.6,3.9,6.7,333.1,0.01,1.7,9.6,"17:13:12",1
"20/01/25","17:30",0.0,7.5,66.1,1021.8,336.4,3.7,7.2,333.8,0.00,1.6,9.6,"17:24:00",1
"20/01/25","17:40",0.0,7.4,66.1,1021.5,341.9,4.2,5.9,324.7,0.00,1.5,9.5,"17:30:56",1
"20/01/25","17:50",0.0,7.3,66.6,1021.5,342.7,3.6,6.7,344.9,0.00,1.5,9.5,"17:48:40",1
"20/01/25","18:00",0.0,7.0,67.3,1021.5,336.3,3.0,5.6,329.2,0.00,1.4,9.3,"17:56:32",1
"20/01/25","18:10",0.0,7.0,68.0,1021.5,338.2,3.1,6.5,340.6,0.00,1.5,9.4,"18:03:52",1
"20/01/25","18:20",0.0,6.8,68.6,1021.5,335.1,3.1,5.5,338.2,0.00,1.5,9.2,"18:16:48",1
"20/01/25","18:30",0.0,6.9,68.9,1021.3,335.2,2.8,4.8,348.0,0.00,1.6,9.1,"18:20:24",1
"20/01/25","18:40",0.0,6.7,69.5,1021.5,329.3,2.6,5.1,341.6,0.00,1.6,9.2,"18:30:24",1
"20/01/25","18:50",0.0,6.7,69.8,1021.5,336.3,3.2,5.1,346.4,0.00,1.6,9.0,"18:40:48",1
"20/01/25","19:00",0.0,6.7,70.2,1021.3,333.4,2.8,4.5,340.5,0.00,1.7,9.1,"18:56:32",1
"20/01/25","19:10",0.0,6.6,70.7,1021.5,331.1,2.7,5.0,335.0,0.00,1.7,8.9,"19:01:52",1
"20/01/25","19:20",0.0,6.5,71.3,1022.0,327.8,2.5,4.5,334.8,0.00,1.7,8.9,"19:14:16",1
"20/01/25","19:30",0.0,6.5,71.8,1021.5,334.2,3.2,5.9,339.8,0.00,1.8,9.0,"19:23:36",1
"20/01/25","19:40",0.0,6.6,72.1,1021.5,332.7,3.1,5.7,339.7,0.00,2.0,8.8,"19:36:32",1
"20/01/25","19:50",0.0,6.6,72.4,1021.5,331.7,3.2,6.6,317.2,0.00,2.0,8.8,"19:46:48",1
"20/01/25","20:00",0.0,6.6,72.6,1021.1,332.8,3.2,5.1,344.0,0.00,2.1,8.7,"19:50:48",1
"20/01/25","20:10",0.0,6.7,72.9,1021.3,329.4,3.4,5.7,327.2,0.00,2.2,8.6,"20:06:56",1
"20/01/25","20:20",0.0,6.7,73.0,1021.3,327.2,4.0,6.6,334.2,0.00,2.2,8.7,"20:16:56",1
"20/01/25","20:30",0.0,6.7,72.6,1021.3,314.7,3.1,4.7,324.3,0.00,2.2,8.6,"20:21:44",1
"20/01/25","20:40",0.0,6.7,72.2,1021.5,317.7,3.0,4.7,327.3,0.00,2.1,8.6,"20:34:24",1
"20/01/25","20:50",0.0,6.7,72.2,1021.3,321.1,2.3,3.4,313.9,0.00,2.1,8.4,"20:48:08",1
"20/01/25","21:00",0.0,6.7,72.3,1021.1,298.4,2.1,2.8,330.8,0.00,2.1,8.7,"20:52:40",1
"20/01/25","21:10",0.0,6.6,72.3,1020.6,306.6,1.6,2.0,319.9,0.00,2.0,8.4,"21:03:04",1
"20/01/25","21:20",0.0,6.5,72.4,1020.6,293.8,1.6,2.1,307.1,0.00,1.9,8.3,"21:11:36",1
"20/01/25","21:30",0.0,6.5,72.7,1021.1,288.5,1.7,2.2,299.1,0.00,2.0,8.5,"21:24:24",1
"20/01/25","21:40",0.0,6.4,73.1,1020.6,282.2,1.7,2.4,299.5,0.00,2.0,8.4,"21:38:32",1
"20/01/25","21:50",0.0,6.4,73.8,1020.8,317.1,2.7,4.0,313.0,0.00,2.1,8.3,"21:45:36",1
"20/01/25","22:00",0.0,6.4,74.1,1021.1,320.1,3.0,4.5,315.9,0.00,2.2,8.4,"21:53:44",1
"20/01/25","22:10",0.0,6.4,74.3,1021.3,320.5,2.7,4.2,336.6,0.00,2.2,8.2,"22:00:16",1
"20/01/25","22:20",0.0,6.4,74.6,1021.3,314.8,2.2,3.2,311.4,0.00,2.3,8.3,"22:19:04",1
"20/01/25","22:30",0.0,6.3,74.9,1021.3,325.9,2.8,4.0,332.5,0.00,2.2,8.3,"22:22:40",1
"20/01/25","22:40",0.0,6.4,75.0,1021.8,323.0,2.6,4.0,326.0,0.00,2.3,8.2,"22:31:04",1
"20/01/25","22:50",0.0,6.4,75.1,1021.3,305.2,1.7,2.6,314.4,0.00,2.4,8.2,"22:44:40",1
"20/01/25","23:00",0.0,6.4,75.2,1021.5,311.4,2.3,3.4,327.0,0.00,2.4,8.2,"22:58:56",1
"20/01/25","23:10",0.0,6.4,75.4,1021.3,320.5,2.6,4.1,304.1,0.00,2.4,8.2,"23:04:40",1
"20/01/25","23:20",0.0,6.4,75.4,1020.4,319.3,1.7,2.6,314.7,0.00,2.4,8.1,"23:19:12",1
"20/01/25","23:30",0.0,6.3,75.5,1020.6,295.8,1.7,2.7,312.3,0.00,2.3,8.1,"23:22:08",1
"20/01/25","23:40",0.0,6.2,75.8,1020.8,304.6,1.6,2.4,328.3,0.00,2.3,8.2,"23:39:36",1
"20/01/25","23:50",0.0,6.2,76.2,1021.1,331.2,1.3,1.8,323.5,0.00,2.4,8.3,"23:40:08",1
"20/01/25","24:00",0.0,6.0,76.6,1020.4,300.2,0.8,1.2,316.6,0.00,2.2,8.3,"23:50:08",1
